Location: Aula-Vintri
(58.3875°N, 22.4322°E)
Time: 20:33:11
(UTC+00:00)

Cosmos 1943 Rocket - Pass Details

Date: 13 October 2019
Orbit: 810 x 845 km, 71.0° (Epoch: 14 November)

Event Time Altitude Azimuth Distance (km) Brightness Sun altitude
Exits shadow 22:44:10 25° 18° (NNE) 1,632 4.1 -39.3°
Drops below altitude 10° 22:46:46 10° 35° (NE) 2,466 5.2 -39.2°
Sets 22:49:23 0° 43° (NE) 3,408 6.0 -39.2°
